owner,sensor,date,latitude,longitude,vertical_datum,sea_water_speed,direction_of_sea_water_velocity,upward_sea_water_velocity,qcFlag
Anadarko,ioos:station:wmo:42377:1,2024-05-01T00:14:00Z,27.2925,-90.9681,21.3,25.0,11111222
Anadarko,ioos:station:wmo:42377:1,2024-05-01T00:34:00Z,27.2925,-90.9681,21.3,25.0,11111222
Anadarko,ioos:station:wmo:42377:1,2024-05-01T00:54:00Z,27.2925,-90.9681,21.3,25.0,11111222
Anadarko,ioos:station:wmo:42377:1,2024-05-01T01:14:00Z,27.2925,-90.9681,21.3,25.0,11111222
Anadarko,ioos:station:wmo:42377:1,2024-05-01T01:34:00Z,27.2925,-90.9681,21.3,25.0,11111222
Anadarko,ioos:station:wmo:42377:1,2024-05-01T01:54:00Z,27.2925,-90.9681,21.3,25.0,11111222
Anadarko,ioos:station:wmo:42377:1,2024-05-01T02:14:00Z,27.2925,-90.9681,21.3,25.0,11111222
Anadarko,ioos:station:wmo:42377:1,2024-05-01T02:34:00Z,27.2925,-90.9681,21.3,25.0,11111222
Anadarko,ioos:station:wmo:42377:1,2024-05-01T02:54:00Z,27.2925,-90.9681,21.3,25.0,11111222
Anadarko,ioos:station:wmo:42377:1,2024-05-01T03:14:00Z,27.2925,-90.9681,21.3,25.0,11111222
Anadarko,ioos:station:wmo:42377:1,2024-05-01T03:34:00Z,27.2925,-90.9681,21.3,25.0,11111222
Anadarko,ioos:station:wmo:42377:1,2024-05-01T03:54:00Z,27.2925,-90.9681,21.3,25.0,11111222
Anadarko,ioos:station:wmo:42377:1,2024-05-01T04:14:00Z,27.2925,-90.9681,21.3,25.0,11111222
Anadarko,ioos:station:wmo:42377:1,2024-05-01T04:34:00Z,27.2925,-90.9681,21.3,25.0,11111222
Anadarko,ioos:station:wmo:42377:1,2024-05-01T04:54:00Z,27.2925,-90.9681,21.3,25.0,11111222
Anadarko,ioos:station:wmo:42377:1,2024-05-01T05:14:00Z,27.2925,-90.9681,21.3,25.0,11111222
Anadarko,ioos:station:wmo:42377:1,2024-05-01T05:34:00Z,27.2925,-90.9681,21.3,25.1,11111222
Anadarko,ioos:station:wmo:42377:1,2024-05-01T05:54:00Z,27.2925,-90.9681,21.3,25.1,11111222
Anadarko,ioos:station:wmo:42377:1,2024-05-01T06:14:00Z,27.2925,-90.9681,21.3,25.0,11111222
Anadarko,ioos:station:wmo:42377:1,2024-05-01T06:34:00Z,27.2925,-90.9681,21.3,25.1,11111222
Anadarko,ioos:station:wmo:42377:1,2024-05-01T06:54:00Z,27.2925,-90.9681,21.3,25.1,11111222
Anadarko,ioos:station:wmo:42377:1,2024-05-01T07:14:00Z,27.2925,-90.9681,21.3,25.0,11111222
Anadarko,ioos:station:wmo:42377:1,2024-05-01T07:34:00Z,27.2925,-90.9681,21.3,25.0,11111222
Anadarko,ioos:station:wmo:42377:1,2024-05-01T07:54:00Z,27.2925,-90.9681,21.3,25.0,11111222
Anadarko,ioos:station:wmo:42377:1,2024-05-01T08:14:00Z,27.2925,-90.9681,21.3,25.0,11111222
Anadarko,ioos:station:wmo:42377:1,2024-05-01T08:34:00Z,27.2925,-90.9681,21.3,25.0,11111222
Anadarko,ioos:station:wmo:42377:1,2024-05-01T08:54:00Z,27.2925,-90.9681,21.3,25.0,11111222
Anadarko,ioos:station:wmo:42377:1,2024-05-01T09:14:00Z,27.2925,-90.9681,21.3,24.9,11111222
Anadarko,ioos:station:wmo:42377:1,2024-05-01T09:34:00Z,27.2925,-90.9681,21.3,24.9,11111222
Anadarko,ioos:station:wmo:42377:1,2024-05-01T09:54:00Z,27.2925,-90.9681,21.3,24.9,11111222
Anadarko,ioos:station:wmo:42377:1,2024-05-01T10:14:00Z,27.2925,-90.9681,21.3,24.9,11111222
Anadarko,ioos:station:wmo:42377:1,2024-05-01T10:34:00Z,27.2925,-90.9681,21.3,24.9,11111222
Anadarko,ioos:station:wmo:42377:1,2024-05-01T10:54:00Z,27.2925,-90.9681,21.3,24.9,11111222
Anadarko,ioos:station:wmo:42377:1,2024-05-01T11:14:00Z,27.2925,-90.9681,21.3,24.9,11111222
Anadarko,ioos:station:wmo:42377:1,2024-05-01T11:34:00Z,27.2925,-90.9681,21.3,24.9,11111222
Anadarko,ioos:station:wmo:42377:1,2024-05-01T11:54:00Z,27.2925,-90.9681,21.3,24.9,11111222
Anadarko,ioos:station:wmo:42377:1,2024-05-01T12:14:00Z,27.2925,-90.9681,21.3,24.9,11111222
Anadarko,ioos:station:wmo:42377:1,2024-05-01T12:34:00Z,27.2925,-90.9681,21.3,24.9,11111222
Anadarko,ioos:station:wmo:42377:1,2024-05-01T12:54:00Z,27.2925,-90.9681,21.3,24.9,11111222
Anadarko,ioos:station:wmo:42377:1,2024-05-01T13:14:00Z,27.2925,-90.9681,21.3,24.9,11111222
Anadarko,ioos:station:wmo:42377:1,2024-05-01T13:34:00Z,27.2925,-90.9681,21.3,24.9,11111222
Anadarko,ioos:station:wmo:42377:1,2024-05-01T13:54:00Z,27.2925,-90.9681,21.3,24.9,11111222
Anadarko,ioos:station:wmo:42377:1,2024-05-01T14:14:00Z,27.2925,-90.9681,21.3,24.9,11111222
Anadarko,ioos:station:wmo:42377:1,2024-05-01T14:34:00Z,27.2925,-90.9681,21.3,25.0,11111222
Anadarko,ioos:station:wmo:42377:1,2024-05-01T14:54:00Z,27.2925,-90.9681,21.3,24.9,11111222
Anadarko,ioos:station:wmo:42377:1,2024-05-01T15:14:00Z,27.2925,-90.9681,21.3,24.9,11111222
Anadarko,ioos:station:wmo:42377:1,2024-05-01T15:34:00Z,27.2925,-90.9681,21.3,24.9,11111222
Anadarko,ioos:station:wmo:42377:1,2024-05-01T15:54:00Z,27.2925,-90.9681,21.3,24.9,11111222
Anadarko,ioos:station:wmo:42377:1,2024-05-01T16:14:00Z,27.2925,-90.9681,21.3,24.9,11111222
Anadarko,ioos:station:wmo:42377:1,2024-05-01T16:34:00Z,27.2925,-90.9681,21.3,24.9,11111222
Anadarko,ioos:station:wmo:42377:1,2024-05-01T16:54:00Z,27.2925,-90.9681,21.3,24.9,11111222
Anadarko,ioos:station:wmo:42377:1,2024-05-01T17:14:00Z,27.2925,-90.9681,21.3,24.9,11111222
Anadarko,ioos:station:wmo:42377:1,2024-05-01T17:34:00Z,27.2925,-90.9681,21.3,24.9,11111222
Anadarko,ioos:station:wmo:42377:1,2024-05-01T17:54:00Z,27.2925,-90.9681,21.3,24.9,11111222
Anadarko,ioos:station:wmo:42377:1,2024-05-01T18:14:00Z,27.2925,-90.9681,21.3,24.9,11111222
Anadarko,ioos:station:wmo:42377:1,2024-05-01T18:34:00Z,27.2925,-90.9681,21.3,24.8,11111222
Anadarko,ioos:station:wmo:42377:1,2024-05-01T18:54:00Z,27.2925,-90.9681,21.3,24.9,11111222
Anadarko,ioos:station:wmo:42377:1,2024-05-01T19:14:00Z,27.2925,-90.9681,21.3,24.9,11111222
Anadarko,ioos:station:wmo:42377:1,2024-05-01T19:34:00Z,27.2925,-90.9681,21.3,24.9,11111222
Anadarko,ioos:station:wmo:42377:1,2024-05-01T19:54:00Z,27.2925,-90.9681,21.3,24.9,11111222
Anadarko,ioos:station:wmo:42377:1,2024-05-01T20:14:00Z,27.2925,-90.9681,21.3,24.9,11111222
Anadarko,ioos:station:wmo:42377:1,2024-05-01T20:34:00Z,27.2925,-90.9681,21.3,24.9,11111222
Anadarko,ioos:station:wmo:42377:1,2024-05-01T20:54:00Z,27.2925,-90.9681,21.3,24.9,11111222
Anadarko,ioos:station:wmo:42377:1,2024-05-01T21:14:00Z,27.2925,-90.9681,21.3,24.9,11111222
Anadarko,ioos:station:wmo:42377:1,2024-05-01T21:34:00Z,27.2925,-90.9681,21.3,25.0,11111222
Anadarko,ioos:station:wmo:42377:1,2024-05-01T21:54:00Z,27.2925,-90.9681,21.3,25.0,11111222
Anadarko,ioos:station:wmo:42377:1,2024-05-01T22:14:00Z,27.2925,-90.9681,21.3,25.0,11111222
Anadarko,ioos:station:wmo:42377:1,2024-05-01T22:34:00Z,27.2925,-90.9681,21.3,25.0,11111222
Anadarko,ioos:station:wmo:42377:1,2024-05-01T22:54:00Z,27.2925,-90.9681,21.3,24.9,11111222
Anadarko,ioos:station:wmo:42377:1,2024-05-01T23:14:00Z,27.2925,-90.9681,21.3,25.0,11111222
Anadarko,ioos:station:wmo:42377:1,2024-05-01T23:34:00Z,27.2925,-90.9681,21.3,24.9,11111222
Anadarko,ioos:station:wmo:42377:1,2024-05-01T23:54:00Z,27.2925,-90.9681,21.3,24.9,11111222
Anadarko,ioos:station:wmo:42377:1,2024-05-02T00:14:00Z,27.2925,-90.9681,21.3,24.9,11111222
Anadarko,ioos:station:wmo:42377:1,2024-05-02T00:34:00Z,27.2925,-90.9681,21.3,24.9,11111222
Anadarko,ioos:station:wmo:42377:1,2024-05-02T00:54:00Z,27.2925,-90.9681,21.3,24.9,11111222
Anadarko,ioos:station:wmo:42377:1,2024-05-02T01:14:00Z,27.2925,-90.9681,21.3,24.9,11111222
Anadarko,ioos:station:wmo:42377:1,2024-05-02T01:34:00Z,27.2925,-90.9681,21.3,25.0,11111222
Anadarko,ioos:station:wmo:42377:1,2024-05-02T01:54:00Z,27.2925,-90.9681,21.3,24.9,11111222
Anadarko,ioos:station:wmo:42377:1,2024-05-02T02:14:00Z,27.2925,-90.9681,21.3,24.9,11111222
Anadarko,ioos:station:wmo:42377:1,2024-05-02T02:34:00Z,27.2925,-90.9681,21.3,25.0,11111222
Anadarko,ioos:station:wmo:42377:1,2024-05-02T02:54:00Z,27.2925,-90.9681,21.3,24.9,11111222
Anadarko,ioos:station:wmo:42377:1,2024-05-02T03:14:00Z,27.2925,-90.9681,21.3,25.0,11111222
Anadarko,ioos:station:wmo:42377:1,2024-05-02T03:34:00Z,27.2925,-90.9681,21.3,24.9,11111222
Anadarko,ioos:station:wmo:42377:1,2024-05-02T03:54:00Z,27.2925,-90.9681,21.3,25.0,11111222
Anadarko,ioos:station:wmo:42377:1,2024-05-02T04:14:00Z,27.2925,-90.9681,21.3,25.0,11111222
Anadarko,ioos:station:wmo:42377:1,2024-05-02T04:34:00Z,27.2925,-90.9681,21.3,24.9,11111222
Anadarko,ioos:station:wmo:42377:1,2024-05-02T04:54:00Z,27.2925,-90.9681,21.3,24.9,11111222
Anadarko,ioos:station:wmo:42377:1,2024-05-02T05:14:00Z,27.2925,-90.9681,21.3,24.9,11111222
Anadarko,ioos:station:wmo:42377:1,2024-05-02T05:34:00Z,27.2925,-90.9681,21.3,24.9,11111222
Anadarko,ioos:station:wmo:42377:1,2024-05-02T05:54:00Z,27.2925,-90.9681,21.3,25.1,11111222
Anadarko,ioos:station:wmo:42377:1,2024-05-02T06:14:00Z,27.2925,-90.9681,21.3,25.2,11111222
Anadarko,ioos:station:wmo:42377:1,2024-05-02T06:34:00Z,27.2925,-90.9681,21.3,25.2,11111222
Anadarko,ioos:station:wmo:42377:1,2024-05-02T06:54:00Z,27.2925,-90.9681,21.3,25.3,11111222
Anadarko,ioos:station:wmo:42377:1,2024-05-02T07:14:00Z,27.2925,-90.9681,21.3,25.2,11111222
Anadarko,ioos:station:wmo:42377:1,2024-05-02T07:34:00Z,27.2925,-90.9681,21.3,25.2,11111222
Anadarko,ioos:station:wmo:42377:1,2024-05-02T07:54:00Z,27.2925,-90.9681,21.3,25.2,11111222
Anadarko,ioos:station:wmo:42377:1,2024-05-02T08:14:00Z,27.2925,-90.9681,21.3,25.2,11111222
Anadarko,ioos:station:wmo:42377:1,2024-05-02T08:34:00Z,27.2925,-90.9681,21.3,25.2,11111222
Anadarko,ioos:station:wmo:42377:1,2024-05-02T08:54:00Z,27.2925,-90.9681,21.3,25.2,11111222
Anadarko,ioos:station:wmo:42377:1,2024-05-02T09:14:00Z,27.2925,-90.9681,21.3,25.2,11111222
Anadarko,ioos:station:wmo:42377:1,2024-05-02T09:34:00Z,27.2925,-90.9681,21.3,25.3,11111222
Anadarko,ioos:station:wmo:42377:1,2024-05-02T09:54:00Z,27.2925,-90.9681,21.3,25.2,11111222
Anadarko,ioos:station:wmo:42377:1,2024-05-02T10:14:00Z,27.2925,-90.9681,21.3,25.2,11111222
Anadarko,ioos:station:wmo:42377:1,2024-05-02T10:34:00Z,27.2925,-90.9681,21.3,25.1,11111222
Anadarko,ioos:station:wmo:42377:1,2024-05-02T10:54:00Z,27.2925,-90.9681,21.3,25.2,11111222
Anadarko,ioos:station:wmo:42377:1,2024-05-02T11:14:00Z,27.2925,-90.9681,21.3,25.2,11111222
Anadarko,ioos:station:wmo:42377:1,2024-05-02T11:34:00Z,27.2925,-90.9681,21.3,25.3,11111222
Anadarko,ioos:station:wmo:42377:1,2024-05-02T11:54:00Z,27.2925,-90.9681,21.3,25.3,11111222
Anadarko,ioos:station:wmo:42377:1,2024-05-02T12:14:00Z,27.2925,-90.9681,21.3,25.2,11111222
Anadarko,ioos:station:wmo:42377:1,2024-05-02T12:34:00Z,27.2925,-90.9681,21.3,25.2,11111222
Anadarko,ioos:station:wmo:42377:1,2024-05-02T12:54:00Z,27.2925,-90.9681,21.3,25.2,11111222
Anadarko,ioos:station:wmo:42377:1,2024-05-02T13:14:00Z,27.2925,-90.9681,21.3,25.2,11111222
Anadarko,ioos:station:wmo:42377:1,2024-05-02T13:34:00Z,27.2925,-90.9681,21.3,25.2,11111222
Anadarko,ioos:station:wmo:42377:1,2024-05-02T13:54:00Z,27.2925,-90.9681,21.3,25.2,11111222
Anadarko,ioos:station:wmo:42377:1,2024-05-02T14:14:00Z,27.2925,-90.9681,21.3,25.2,11111222
Anadarko,ioos:station:wmo:42377:1,2024-05-02T14:34:00Z,27.2925,-90.9681,21.3,25.1,11111222
Anadarko,ioos:station:wmo:42377:1,2024-05-02T14:54:00Z,27.2925,-90.9681,21.3,25.0,11111222
Anadarko,ioos:station:wmo:42377:1,2024-05-02T15:14:00Z,27.2925,-90.9681,21.3,25.0,11111222
Anadarko,ioos:station:wmo:42377:1,2024-05-02T15:34:00Z,27.2925,-90.9681,21.3,25.0,11111222
Anadarko,ioos:station:wmo:42377:1,2024-05-02T15:54:00Z,27.2925,-90.9681,21.3,25.0,11111222
Anadarko,ioos:station:wmo:42377:1,2024-05-02T16:14:00Z,27.2925,-90.9681,21.3,25.0,11111222
Anadarko,ioos:station:wmo:42377:1,2024-05-02T16:34:00Z,27.2925,-90.9681,21.3,25.2,11111222
Anadarko,ioos:station:wmo:42377:1,2024-05-02T16:54:00Z,27.2925,-90.9681,21.3,25.4,11111222
Anadarko,ioos:station:wmo:42377:1,2024-05-02T17:14:00Z,27.2925,-90.9681,21.3,25.2,11111222
Anadarko,ioos:station:wmo:42377:1,2024-05-02T17:34:00Z,27.2925,-90.9681,21.3,25.1,11111222
Anadarko,ioos:station:wmo:42377:1,2024-05-02T17:54:00Z,27.2925,-90.9681,21.3,25.1,11111222
Anadarko,ioos:station:wmo:42377:1,2024-05-02T18:14:00Z,27.2925,-90.9681,21.3,25.0,11111222
Anadarko,ioos:station:wmo:42377:1,2024-05-02T18:34:00Z,27.2925,-90.9681,21.3,25.0,11111222
Anadarko,ioos:station:wmo:42377:1,2024-05-02T18:54:00Z,27.2925,-90.9681,21.3,25.0,11111222
Anadarko,ioos:station:wmo:42377:1,2024-05-02T19:14:00Z,27.2925,-90.9681,21.3,25.0,11111222
Anadarko,ioos:station:wmo:42377:1,2024-05-02T19:34:00Z,27.2925,-90.9681,21.3,24.9,11111222
Anadarko,ioos:station:wmo:42377:1,2024-05-02T19:54:00Z,27.2925,-90.9681,21.3,24.9,11111222
Anadarko,ioos:station:wmo:42377:1,2024-05-02T20:14:00Z,27.2925,-90.9681,21.3,24.9,11111222
Anadarko,ioos:station:wmo:42377:1,2024-05-02T20:34:00Z,27.2925,-90.9681,21.3,24.9,11111222
Anadarko,ioos:station:wmo:42377:1,2024-05-02T20:54:00Z,27.2925,-90.9681,21.3,24.9,11111222
Anadarko,ioos:station:wmo:42377:1,2024-05-02T21:14:00Z,27.2925,-90.9681,21.3,24.9,11111222
Anadarko,ioos:station:wmo:42377:1,2024-05-02T21:34:00Z,27.2925,-90.9681,21.3,24.9,11111222
Anadarko,ioos:station:wmo:42377:1,2024-05-02T21:53:00Z,27.2925,-90.9681,21.3,24.9,11111222
Anadarko,ioos:station:wmo:42377:1,2024-05-02T22:13:00Z,27.2925,-90.9681,21.3,24.9,11111222
Anadarko,ioos:station:wmo:42377:1,2024-05-02T22:33:00Z,27.2925,-90.9681,21.3,24.8,11111222
Anadarko,ioos:station:wmo:42377:1,2024-05-02T22:53:00Z,27.2925,-90.9681,21.3,24.8,11111222
Anadarko,ioos:station:wmo:42377:1,2024-05-02T23:13:00Z,27.2925,-90.9681,21.3,24.7,11111222
Anadarko,ioos:station:wmo:42377:1,2024-05-02T23:33:00Z,27.2925,-90.9681,21.3,24.8,11111222
Anadarko,ioos:station:wmo:42377:1,2024-05-02T23:53:00Z,27.2925,-90.9681,21.3,24.7,11111222
Anadarko,ioos:station:wmo:42377:1,2024-05-03T00:13:00Z,27.2925,-90.9681,21.3,24.9,11111222
Anadarko,ioos:station:wmo:42377:1,2024-05-03T00:33:00Z,27.2925,-90.9681,21.3,24.9,11111222
Anadarko,ioos:station:wmo:42377:1,2024-05-03T00:53:00Z,27.2925,-90.9681,21.3,24.8,11111222
Anadarko,ioos:station:wmo:42377:1,2024-05-03T01:13:00Z,27.2925,-90.9681,21.3,25.1,11111222
Anadarko,ioos:station:wmo:42377:1,2024-05-03T01:33:00Z,27.2925,-90.9681,21.3,25.1,11111222
Anadarko,ioos:station:wmo:42377:1,2024-05-03T01:53:00Z,27.2925,-90.9681,21.3,25.1,11111222
Anadarko,ioos:station:wmo:42377:1,2024-05-03T02:13:00Z,27.2925,-90.9681,21.3,25.2,11111222
Anadarko,ioos:station:wmo:42377:1,2024-05-03T02:33:00Z,27.2925,-90.9681,21.3,25.2,11111222
Anadarko,ioos:station:wmo:42377:1,2024-05-03T02:53:00Z,27.2925,-90.9681,21.3,25.3,11111222
Anadarko,ioos:station:wmo:42377:1,2024-05-03T03:13:00Z,27.2925,-90.9681,21.3,25.3,11111222
Anadarko,ioos:station:wmo:42377:1,2024-05-03T03:33:00Z,27.2925,-90.9681,21.3,25.4,11111222
Anadarko,ioos:station:wmo:42377:1,2024-05-03T03:53:00Z,27.2925,-90.9681,21.3,25.4,11111222
Anadarko,ioos:station:wmo:42377:1,2024-05-03T04:13:00Z,27.2925,-90.9681,21.3,25.4,11111222
Anadarko,ioos:station:wmo:42377:1,2024-05-03T04:33:00Z,27.2925,-90.9681,21.3,25.4,11111222
Anadarko,ioos:station:wmo:42377:1,2024-05-03T04:53:00Z,27.2925,-90.9681,21.3,25.4,11111222
Anadarko,ioos:station:wmo:42377:1,2024-05-03T05:13:00Z,27.2925,-90.9681,21.3,25.4,11111222
Anadarko,ioos:station:wmo:42377:1,2024-05-03T05:33:00Z,27.2925,-90.9681,21.3,25.4,11111222
Anadarko,ioos:station:wmo:42377:1,2024-05-03T05:53:00Z,27.2925,-90.9681,21.3,25.4,11111222
Anadarko,ioos:station:wmo:42377:1,2024-05-03T06:13:00Z,27.2925,-90.9681,21.3,25.4,11111222
Anadarko,ioos:station:wmo:42377:1,2024-05-03T06:33:00Z,27.2925,-90.9681,21.3,25.4,11111222
Anadarko,ioos:station:wmo:42377:1,2024-05-03T06:53:00Z,27.2925,-90.9681,21.3,25.3,11111222
Anadarko,ioos:station:wmo:42377:1,2024-05-03T07:13:00Z,27.2925,-90.9681,21.3,25.3,11111222
Anadarko,ioos:station:wmo:42377:1,2024-05-03T07:33:00Z,27.2925,-90.9681,21.3,25.2,11111222
Anadarko,ioos:station:wmo:42377:1,2024-05-03T07:53:00Z,27.2925,-90.9681,21.3,25.2,11111222
Anadarko,ioos:station:wmo:42377:1,2024-05-03T08:13:00Z,27.2925,-90.9681,21.3,25.4,11111222
Anadarko,ioos:station:wmo:42377:1,2024-05-03T08:33:00Z,27.2925,-90.9681,21.3,25.4,11111222
Anadarko,ioos:station:wmo:42377:1,2024-05-03T08:53:00Z,27.2925,-90.9681,21.3,25.4,11111222
Anadarko,ioos:station:wmo:42377:1,2024-05-03T09:13:00Z,27.2925,-90.9681,21.3,25.4,11111222
Anadarko,ioos:station:wmo:42377:1,2024-05-03T09:33:00Z,27.2925,-90.9681,21.3,25.4,11111222
Anadarko,ioos:station:wmo:42377:1,2024-05-03T09:53:00Z,27.2925,-90.9681,21.3,25.4,11111222
Anadarko,ioos:station:wmo:42377:1,2024-05-03T10:13:00Z,27.2925,-90.9681,21.3,25.4,11111222
Anadarko,ioos:station:wmo:42377:1,2024-05-03T10:33:00Z,27.2925,-90.9681,21.3,25.4,11111222
Anadarko,ioos:station:wmo:42377:1,2024-05-03T10:53:00Z,27.2925,-90.9681,21.3,25.4,11111222
Anadarko,ioos:station:wmo:42377:1,2024-05-03T11:13:00Z,27.2925,-90.9681,21.3,25.4,11111222
Anadarko,ioos:station:wmo:42377:1,2024-05-03T11:33:00Z,27.2925,-90.9681,21.3,25.4,11111222
Anadarko,ioos:station:wmo:42377:1,2024-05-03T11:53:00Z,27.2925,-90.9681,21.3,25.4,11111222
Anadarko,ioos:station:wmo:42377:1,2024-05-03T12:13:00Z,27.2925,-90.9681,21.3,25.4,11111222
Anadarko,ioos:station:wmo:42377:1,2024-05-03T12:33:00Z,27.2925,-90.9681,21.3,25.4,11111222
Anadarko,ioos:station:wmo:42377:1,2024-05-03T12:53:00Z,27.2925,-90.9681,21.3,25.4,11111222
Anadarko,ioos:station:wmo:42377:1,2024-05-03T13:13:00Z,27.2925,-90.9681,21.3,25.4,11111222
Anadarko,ioos:station:wmo:42377:1,2024-05-03T13:33:00Z,27.2925,-90.9681,21.3,25.4,11111222
Anadarko,ioos:station:wmo:42377:1,2024-05-03T13:53:00Z,27.2925,-90.9681,21.3,25.3,11111222
Anadarko,ioos:station:wmo:42377:1,2024-05-03T14:13:00Z,27.2925,-90.9681,21.3,25.3,11111222
Anadarko,ioos:station:wmo:42377:1,2024-05-03T14:33:00Z,27.2925,-90.9681,21.3,25.2,11111222
Anadarko,ioos:station:wmo:42377:1,2024-05-03T14:53:00Z,27.2925,-90.9681,21.3,25.3,11111222
Anadarko,ioos:station:wmo:42377:1,2024-05-03T15:13:00Z,27.2925,-90.9681,21.3,25.2,11111222
Anadarko,ioos:station:wmo:42377:1,2024-05-03T15:33:00Z,27.2925,-90.9681,21.3,25.2,11111222
Anadarko,ioos:station:wmo:42377:1,2024-05-03T15:53:00Z,27.2925,-90.9681,21.3,25.1,11111222
Anadarko,ioos:station:wmo:42377:1,2024-05-03T16:13:00Z,27.2925,-90.9681,21.3,25.2,11111222
Anadarko,ioos:station:wmo:42377:1,2024-05-03T16:33:00Z,27.2925,-90.9681,21.3,25.2,11111222
Anadarko,ioos:station:wmo:42377:1,2024-05-03T16:53:00Z,27.2925,-90.9681,21.3,25.3,11111222
Anadarko,ioos:station:wmo:42377:1,2024-05-03T17:13:00Z,27.2925,-90.9681,21.3,25.3,11111222
Anadarko,ioos:station:wmo:42377:1,2024-05-03T17:33:00Z,27.2925,-90.9681,21.3,25.3,11111222
Anadarko,ioos:station:wmo:42377:1,2024-05-03T17:53:00Z,27.2925,-90.9681,21.3,25.3,11111222
Anadarko,ioos:station:wmo:42377:1,2024-05-03T18:13:00Z,27.2925,-90.9681,21.3,25.2,11111222
Anadarko,ioos:station:wmo:42377:1,2024-05-03T18:33:00Z,27.2925,-90.9681,21.3,25.2,11111222
Anadarko,ioos:station:wmo:42377:1,2024-05-03T18:53:00Z,27.2925,-90.9681,21.3,25.3,11111222
Anadarko,ioos:station:wmo:42377:1,2024-05-03T19:13:00Z,27.2925,-90.9681,21.3,25.2,11111222
Anadarko,ioos:station:wmo:42377:1,2024-05-03T19:33:00Z,27.2925,-90.9681,21.3,25.1,11111222
Anadarko,ioos:station:wmo:42377:1,2024-05-03T19:53:00Z,27.2925,-90.9681,21.3,25.1,11111222
Anadarko,ioos:station:wmo:42377:1,2024-05-03T20:13:00Z,27.2925,-90.9681,21.3,25.1,11111222
Anadarko,ioos:station:wmo:42377:1,2024-05-03T20:33:00Z,27.2925,-90.9681,21.3,25.0,11111222
Anadarko,ioos:station:wmo:42377:1,2024-05-03T20:53:00Z,27.2925,-90.9681,21.3,25.0,11111222
Anadarko,ioos:station:wmo:42377:1,2024-05-03T21:13:00Z,27.2925,-90.9681,21.3,24.9,11111222
Anadarko,ioos:station:wmo:42377:1,2024-05-03T21:33:00Z,27.2925,-90.9681,21.3,25.0,11111222
Anadarko,ioos:station:wmo:42377:1,2024-05-03T21:53:00Z,27.2925,-90.9681,21.3,25.0,11111222
Anadarko,ioos:station:wmo:42377:1,2024-05-03T22:13:00Z,27.2925,-90.9681,21.3,25.1,11111222
Anadarko,ioos:station:wmo:42377:1,2024-05-03T22:33:00Z,27.2925,-90.9681,21.3,25.1,11111222
Anadarko,ioos:station:wmo:42377:1,2024-05-03T22:53:00Z,27.2925,-90.9681,21.3,25.0,11111222
Anadarko,ioos:station:wmo:42377:1,2024-05-03T23:13:00Z,27.2925,-90.9681,21.3,25.0,11111222
Anadarko,ioos:station:wmo:42377:1,2024-05-03T23:33:00Z,27.2925,-90.9681,21.3,25.0,11111222
Anadarko,ioos:station:wmo:42377:1,2024-05-03T23:53:00Z,27.2925,-90.9681,21.3,25.0,11111222
Anadarko,ioos:station:wmo:42377:1,2024-05-04T00:13:00Z,27.2925,-90.9681,21.3,25.0,11111222
Anadarko,ioos:station:wmo:42377:1,2024-05-04T00:33:00Z,27.2925,-90.9681,21.3,25.0,11111222
Anadarko,ioos:station:wmo:42377:1,2024-05-04T00:53:00Z,27.2925,-90.9681,21.3,25.1,11111222
Anadarko,ioos:station:wmo:42377:1,2024-05-04T01:13:00Z,27.2925,-90.9681,21.3,25.1,11111222
Anadarko,ioos:station:wmo:42377:1,2024-05-04T01:33:00Z,27.2925,-90.9681,21.3,25.1,11111222
Anadarko,ioos:station:wmo:42377:1,2024-05-04T01:53:00Z,27.2925,-90.9681,21.3,25.3,11111222
Anadarko,ioos:station:wmo:42377:1,2024-05-04T02:13:00Z,27.2925,-90.9681,21.3,25.4,11111222
Anadarko,ioos:station:wmo:42377:1,2024-05-04T02:33:00Z,27.2925,-90.9681,21.3,25.4,11111222
Anadarko,ioos:station:wmo:42377:1,2024-05-04T02:53:00Z,27.2925,-90.9681,21.3,25.4,11111222
Anadarko,ioos:station:wmo:42377:1,2024-05-04T03:13:00Z,27.2925,-90.9681,21.3,25.4,11111222
Anadarko,ioos:station:wmo:42377:1,2024-05-04T03:33:00Z,27.2925,-90.9681,21.3,25.4,11111222
Anadarko,ioos:station:wmo:42377:1,2024-05-04T03:53:00Z,27.2925,-90.9681,21.3,25.4,11111222
Anadarko,ioos:station:wmo:42377:1,2024-05-04T04:13:00Z,27.2925,-90.9681,21.3,25.4,11111222
Anadarko,ioos:station:wmo:42377:1,2024-05-04T04:33:00Z,27.2925,-90.9681,21.3,25.5,11111222
Anadarko,ioos:station:wmo:42377:1,2024-05-04T04:53:00Z,27.2925,-90.9681,21.3,25.5,11111222
Anadarko,ioos:station:wmo:42377:1,2024-05-04T05:13:00Z,27.2925,-90.9681,21.3,25.5,11111222
Anadarko,ioos:station:wmo:42377:1,2024-05-04T05:33:00Z,27.2925,-90.9681,21.3,25.5,11111222
Anadarko,ioos:station:wmo:42377:1,2024-05-04T05:53:00Z,27.2925,-90.9681,21.3,25.5,11111222
Anadarko,ioos:station:wmo:42377:1,2024-05-04T06:13:00Z,27.2925,-90.9681,21.3,25.5,11111222
Anadarko,ioos:station:wmo:42377:1,2024-05-04T06:33:00Z,27.2925,-90.9681,21.3,25.5,11111222
Anadarko,ioos:station:wmo:42377:1,2024-05-04T06:53:00Z,27.2925,-90.9681,21.3,25.5,11111222
Anadarko,ioos:station:wmo:42377:1,2024-05-04T07:13:00Z,27.2925,-90.9681,21.3,25.5,11111222
Anadarko,ioos:station:wmo:42377:1,2024-05-04T07:33:00Z,27.2925,-90.9681,21.3,25.5,11111222
Anadarko,ioos:station:wmo:42377:1,2024-05-04T07:53:00Z,27.2925,-90.9681,21.3,25.5,11111222
Anadarko,ioos:station:wmo:42377:1,2024-05-04T08:13:00Z,27.2925,-90.9681,21.3,25.3,11111222
Anadarko,ioos:station:wmo:42377:1,2024-05-04T08:33:00Z,27.2925,-90.9681,21.3,25.3,11111222
Anadarko,ioos:station:wmo:42377:1,2024-05-04T08:53:00Z,27.2925,-90.9681,21.3,25.3,11111222
Anadarko,ioos:station:wmo:42377:1,2024-05-04T09:13:00Z,27.2925,-90.9681,21.3,25.2,11111222
Anadarko,ioos:station:wmo:42377:1,2024-05-04T09:33:00Z,27.2925,-90.9681,21.3,25.4,11111222
Anadarko,ioos:station:wmo:42377:1,2024-05-04T09:53:00Z,27.2925,-90.9681,21.3,25.4,11111222
Anadarko,ioos:station:wmo:42377:1,2024-05-04T10:13:00Z,27.2925,-90.9681,21.3,25.4,11111222
Anadarko,ioos:station:wmo:42377:1,2024-05-04T10:33:00Z,27.2925,-90.9681,21.3,25.1,11111222
Anadarko,ioos:station:wmo:42377:1,2024-05-04T10:53:00Z,27.2925,-90.9681,21.3,25.1,11111222
Anadarko,ioos:station:wmo:42377:1,2024-05-04T11:13:00Z,27.2925,-90.9681,21.3,25.1,11111222
Anadarko,ioos:station:wmo:42377:1,2024-05-04T11:33:00Z,27.2925,-90.9681,21.3,25.1,11111222
Anadarko,ioos:station:wmo:42377:1,2024-05-04T11:53:00Z,27.2925,-90.9681,21.3,25.1,11111222
Anadarko,ioos:station:wmo:42377:1,2024-05-04T12:13:00Z,27.2925,-90.9681,21.3,25.1,11111222
Anadarko,ioos:station:wmo:42377:1,2024-05-04T12:33:00Z,27.2925,-90.9681,21.3,25.1,11111222
Anadarko,ioos:station:wmo:42377:1,2024-05-04T12:53:00Z,27.2925,-90.9681,21.3,25.1,11111222
Anadarko,ioos:station:wmo:42377:1,2024-05-04T13:13:00Z,27.2925,-90.9681,21.3,25.1,11111222
Anadarko,ioos:station:wmo:42377:1,2024-05-04T13:33:00Z,27.2925,-90.9681,21.3,25.1,11111222
Anadarko,ioos:station:wmo:42377:1,2024-05-04T13:53:00Z,27.2925,-90.9681,21.3,25.1,11111222
Anadarko,ioos:station:wmo:42377:1,2024-05-04T14:13:00Z,27.2925,-90.9681,21.3,25.2,11111222